Bigfork, MN

10:55 AM CDT on September 25, 2017 (GMT -0500)
Bigfork Municipal

Weather History for KFOZ - July, 2013

Change the Weather History Date:

Monday, July 15, 2013

  Actual Average (KGPZ) Record (KGPZ)
Temperature  
Mean Temperature 70 °F -  
Max Temperature 75 °F 81 °F 96 °F (1931)
Min Temperature 66 °F 55 °F 30 °F (1996)
Cooling Degree Days 6    
Growing Degree Days 20 (Base 50)    
Moisture  
Dew Point 66 °F    
Average Humidity 88    
Maximum Humidity 94    
Minimum Humidity 73    
Precipitation  
Precipitation 0.00 in - - ()
Sea Level Pressure  
Sea Level Pressure 30.22 in    
Wind  
Wind Speed 2 mph (South)    
Max Wind Speed 8 mph    
Max Gust Speed -    
Visibility 7 miles    
Events Rain    
Averages and records for this station are not official NWS values.
T = Trace of Precipitation, MM = Missing Value Source: NWS Daily Summary

Daily Weather History Graph

Daily Weather History Graph

Search for Another Location

Airport or City:

Trip Planner

Search our weather history database for the weather conditions in past years. The results will help you decide how hot, cold, wet, or windy it might be!

Date:

Astronomy

Jul. 15, 2013 Rise Set
Actual Time 5:31 AM CDT 9:08 PM CDT
Civil Twilight 4:52 AM CDT 9:47 PM CDT
Nautical Twilight 4:00 AM CDT 10:39 PM CDT
Astronomical Twilight 2:48 AM CDT 11:50 PM CDT
Moon 1:29 PM CDT (7/15) No Moon Set
Length of Visible Light 16h 54m
Length of Day
15h 36m
Waxing Crescent, 45% of the Moon is Illuminated
Jul 15
Waxing Crescent
Jul 15
First Quarter
Jul 22
Full
Jul 29
Last Quarter
Aug 6
New

Hourly Weather History & Observations

Time (CDT) Temp. Dew Point Humidity Pressure Visibility Wind Dir Wind Speed Gust Speed Precip Events Conditions
12:13 AM 68.0 °F 66.2 °F 94% 30.23 in 7.0 mi Calm Calm - N/A   Overcast
12:33 AM 68.0 °F 66.2 °F 94% 30.22 in 7.0 mi Calm Calm - N/A   Overcast
12:53 AM 68.0 °F 64.4 °F 88% 30.22 in 7.0 mi Calm Calm - N/A   Overcast
1:13 AM 68.0 °F 64.4 °F 88% 30.22 in 7.0 mi Calm Calm - N/A   Overcast
1:33 AM 68.0 °F 66.2 °F 94% 30.22 in 7.0 mi Calm Calm - N/A   Overcast
1:53 AM 68.0 °F 66.2 °F 94% 30.22 in 7.0 mi Calm Calm - N/A   Overcast
2:13 AM 68.0 °F 66.2 °F 94% 30.22 in 7.0 mi Calm Calm - N/A   Overcast
2:33 AM 68.0 °F 66.2 °F 94% 30.22 in 7.0 mi SSW 4.6 mph - N/A   Overcast
2:53 AM 66.2 °F 64.4 °F 94% 30.22 in 7.0 mi South 4.6 mph - N/A   Overcast
3:13 AM 66.2 °F 64.4 °F 94% 30.22 in 7.0 mi Calm Calm - N/A   Overcast
3:33 AM 66.2 °F 64.4 °F 94% 30.22 in 7.0 mi Calm Calm - N/A   Overcast
3:53 AM 68.0 °F 64.4 °F 88% 30.22 in 7.0 mi Calm Calm - N/A   Overcast
4:13 AM 66.2 °F 64.4 °F 94% 30.22 in 7.0 mi SSW 3.5 mph - N/A   Overcast
4:33 AM 66.2 °F 64.4 °F 94% 30.22 in 10.0 mi SSW 3.5 mph - N/A   Overcast
4:53 AM 66.2 °F 64.4 °F 94% 30.22 in 7.0 mi Calm Calm - N/A   Overcast
5:13 AM 66.2 °F 64.4 °F 94% 30.22 in 7.0 mi Calm Calm - N/A   Overcast
5:33 AM 66.2 °F 64.4 °F 94% 30.22 in 5.0 mi Calm Calm - N/A   Overcast
5:53 AM 66.2 °F 64.4 °F 94% 30.22 in 5.0 mi Calm Calm - N/A   Overcast
6:13 AM 66.2 °F 64.4 °F 94% 30.23 in 5.0 mi Calm Calm - N/A   Overcast
6:33 AM 68.0 °F 64.4 °F 88% 30.23 in 4.0 mi Calm Calm - N/A   Overcast
6:53 AM 68.0 °F 66.2 °F 94% 30.23 in 7.0 mi SSW 3.5 mph - N/A   Overcast
7:13 AM 68.0 °F 66.2 °F 94% 30.24 in 10.0 mi Calm Calm - N/A   Overcast
7:33 AM 69.8 °F 66.2 °F 88% 30.24 in 10.0 mi South 3.5 mph - N/A   Overcast
7:53 AM 69.8 °F 66.2 °F 88% 30.24 in 10.0 mi Calm Calm - N/A   Overcast
8:13 AM 69.8 °F 66.2 °F 88% 30.24 in 10.0 mi South 3.5 mph - N/A   Overcast
8:33 AM 69.8 °F 66.2 °F 88% 30.24 in 10.0 mi South 3.5 mph - N/A   Overcast
8:53 AM 69.8 °F 66.2 °F 88% 30.25 in 10.0 mi Calm Calm - N/A   Overcast
9:13 AM 69.8 °F 66.2 °F 88% 30.25 in 10.0 mi SSE 3.5 mph - N/A   Overcast
9:33 AM 69.8 °F 66.2 °F 88% 30.25 in 10.0 mi Calm Calm - N/A   Mostly Cloudy
9:53 AM 69.8 °F 66.2 °F 88% 30.25 in 10.0 mi Calm Calm - N/A   Scattered Clouds
10:13 AM 71.6 °F 66.2 °F 83% 30.24 in 10.0 mi Calm Calm - N/A   Clear
10:33 AM 73.4 °F 66.2 °F 78% 30.24 in 10.0 mi South 4.6 mph - N/A   Clear
10:53 AM 73.4 °F 66.2 °F 78% 30.24 in 10.0 mi SSE 4.6 mph - N/A   Mostly Cloudy
11:13 AM 75.2 °F 66.2 °F 73% 30.24 in 10.0 mi South 5.8 mph - N/A   Scattered Clouds
11:33 AM 75.2 °F 66.2 °F 73% 30.24 in 10.0 mi South 4.6 mph - N/A   Scattered Clouds
11:53 AM 75.2 °F 68.0 °F 78% 30.24 in 10.0 mi South 6.9 mph - N/A   Scattered Clouds
12:13 PM 75.2 °F 68.0 °F 78% 30.24 in 10.0 mi South 5.8 mph - N/A   Clear
12:33 PM 75.2 °F 66.2 °F 73% 30.24 in 10.0 mi South 5.8 mph - N/A   Clear
12:53 PM 73.4 °F 66.2 °F 78% 30.24 in 10.0 mi SSE 4.6 mph - N/A   Scattered Clouds
1:13 PM 73.4 °F 68.0 °F 83% 30.24 in 10.0 mi South 5.8 mph - N/A   Scattered Clouds
1:33 PM 73.4 °F 66.2 °F 78% 30.23 in 10.0 mi SSE 6.9 mph - N/A   Scattered Clouds
1:53 PM 73.4 °F 66.2 °F 78% 30.23 in 10.0 mi South 4.6 mph - N/A   Scattered Clouds
2:13 PM 73.4 °F 68.0 °F 83% 30.23 in 10.0 mi South 8.1 mph - N/A   Clear
2:33 PM 73.4 °F 66.2 °F 78% 30.24 in 10.0 mi South 6.9 mph - N/A   Scattered Clouds
2:53 PM 71.6 °F 66.2 °F 83% 30.23 in 10.0 mi SSE 5.8 mph - N/A Rain Light Rain
3:13 PM 71.6 °F 66.2 °F 83% 30.23 in 10.0 mi South 3.5 mph - N/A Rain Light Rain
3:33 PM 73.4 °F 68.0 °F 83% 30.24 in 10.0 mi SSE 3.5 mph - N/A Rain Light Rain
3:53 PM 73.4 °F 68.0 °F 83% 30.24 in 7.0 mi South 3.5 mph - N/A Rain Light Rain
4:13 PM 71.6 °F 69.8 °F 94% 30.24 in 4.0 mi South 3.5 mph - N/A Rain Rain
4:33 PM 71.6 °F 68.0 °F 88% 30.24 in 2.5 mi SSE 4.6 mph - N/A Rain Heavy Rain
4:53 PM 71.6 °F 68.0 °F 88% 30.23 in 3.0 mi SSE 3.5 mph - N/A Rain Heavy Rain
5:14 PM 69.8 °F 68.0 °F 94% 30.22 in 3.0 mi Calm Calm - N/A Rain Rain
5:33 PM 69.8 °F 66.2 °F 88% 30.22 in 3.0 mi Calm Calm - N/A Rain Rain
5:53 PM 69.8 °F 68.0 °F 94% 30.21 in 2.5 mi Calm Calm - N/A Rain Rain
6:13 PM 69.8 °F 66.2 °F 88% 30.22 in 2.5 mi Calm Calm - N/A Rain Rain
6:33 PM 69.8 °F 66.2 °F 88% 30.21 in 2.0 mi Calm Calm - N/A Rain Rain
6:53 PM 69.8 °F 66.2 °F 88% 30.20 in 3.0 mi Calm Calm - N/A Rain Light Rain
7:13 PM 69.8 °F 66.2 °F 88% 30.19 in 3.0 mi Calm Calm - N/A Rain Rain
7:33 PM 69.8 °F 66.2 °F 88% 30.18 in 4.0 mi Calm Calm - N/A Rain Light Rain
7:53 PM 69.8 °F 66.2 °F 88% 30.19 in 3.0 mi Calm Calm - N/A Rain Light Rain
8:13 PM 69.8 °F 66.2 °F 88% 30.18 in 2.0 mi Calm Calm - N/A Rain Light Rain
8:33 PM 69.8 °F 66.2 °F 88% 30.18 in 1.8 mi Calm Calm - N/A Rain Light Rain
8:53 PM 68.0 °F 66.2 °F 94% 30.17 in 3.0 mi East 3.5 mph - N/A   Clear
9:13 PM 68.0 °F 66.2 °F 94% 30.17 in 5.0 mi Calm Calm - N/A   Clear
9:33 PM 68.0 °F 64.4 °F 88% 30.17 in 5.0 mi East 3.5 mph - N/A   Clear
9:53 PM 66.2 °F 64.4 °F 94% 30.17 in 4.0 mi East 3.5 mph - N/A   Clear
10:13 PM 66.2 °F 64.4 °F 94% 30.17 in 4.0 mi Calm Calm - N/A   Clear
10:33 PM 66.2 °F 64.4 °F 94% 30.17 in 4.0 mi Calm Calm - N/A   Clear
10:53 PM 66.2 °F 64.4 °F 94% 30.17 in 5.0 mi Calm Calm - N/A   Clear
11:13 PM 66.2 °F 64.4 °F 94% 30.17 in 4.0 mi Calm Calm - N/A   Clear
11:33 PM 66.2 °F 64.4 °F 94% 30.17 in 4.0 mi Calm Calm - N/A   Clear
11:53 PM 66.2 °F 64.4 °F 94% 30.17 in 3.0 mi Calm Calm - N/A   Clear